Wind_Speed
15 16 17 18 22 25 27 27 29 30 34 38 41 44 47 50 55 58 62 64 65 64 61 57 53 51 49 49 50 49 46 42 38 34 31 28 28 29 31 34 39 46 54 62
15 17 19 20 25 28 28 27 27 30 35 40 42 44 47 51 56 60 61 59 56 53 51 51 51 53 53 53 52 50 47 43 39 36 35 35 36 35 34 34 35 36 39 44
18 21 21 25 29 31 32 30 33 37 41 44 46 48 52 58 61 59 55 53 52 52 53 54 56 57 58 58 57 55 52 49 46 45 44 45 44 43 40 38 36 35 34 35
24 26 28 30 32 34 35 35 37 40 44 48 51 53 56 59 58 54 52 52 53 54 55 56 58 59 61 61 60 58 56 55 53 53 52 51 49 48 46 44 41 38 36 34
27 29 30 32 35 36 36 38 40 43 47 50 53 54 55 56 54 51 51 53 56 57 58 60 62 63 64 62 60 58 57 56 56 57 56 55 52 50 48 46 44 42 40 37
26 28 31 35 38 38 38 38 42 45 49 52 56 58 59 56 50 48 51 55 57 59 61 63 64 64 62 58 56 54 52 50 50 53 55 55 54 52 49 47 44 42 42 40
26 29 33 37 40 40 39 41 43 48 53 57 58 60 61 53 46 48 52 55 58 60 63 65 64 60 56 53 51 50 47 44 43 43 46 49 50 50 49 48 44 43 43 41
29 31 34 38 40 42 42 43 47 51 54 57 57 60 58 49 45 48 52 54 57 61 64 65 62 57 53 51 50 47 43 39 36 35 36 39 42 44 45 45 44 42 42 41
29 32 35 39 43 45 45 46 48 51 54 56 57 59 55 46 45 48 51 53 57 61 64 64 61 56 52 50 48 43 36 31 28 26 26 28 31 34 36 38 39 39 39 38
27 31 36 40 42 43 43 44 47 51 54 55 57 58 52 45 45 47 50 52 57 61 63 63 60 56 52 49 45 39 31 25 22 21 21 22 24 25 27 30 32 33 34 34
26 30 34 37 40 42 42 44 47 51 53 54 56 58 51 44 45 47 49 53 58 61 63 62 60 56 51 48 45 39 30 24 20 19 19 18 19 20 21 23 25 28 30 31
29 31 33 36 40 43 44 45 49 52 53 53 56 57 50 44 44 46 49 53 57 60 61 61 59 55 51 49 47 42 33 23 17 14 14 14 14 15 16 17 20 23 26 28
30 31 34 37 41 44 45 47 49 52 53 53 55 56 49 44 44 46 48 51 55 58 60 60 57 54 51 50 48 43 35 25 15 9 6 4 5 7 9 11 15 20 23 26
30 31 33 37 41 44 45 47 49 51 52 52 53 55 50 44 43 45 47 49 53 56 58 58 57 53 50 50 48 45 38 28 18 11 7 5 4 5 7 10 13 18 21 23
31 32 34 37 41 45 47 47 49 51 51 50 51 55 51 44 41 43 45 47 50 53 55 56 56 53 49 48 48 46 40 32 24 17 14 11 9 10 11 12 15 18 21 22
32 33 35 38 42 45 48 48 49 51 51 50 50 53 52 45 41 41 43 44 46 50 52 54 55 53 48 45 45 45 43 36 30 24 20 17 15 14 14 14 15 17 18 18
33 34 35 38 42 45 48 48 49 51 50 49 49 51 52 46 40 39 40 41 43 46 49 51 53 53 49 43 41 41 40 37 33 29 26 23 20 18 16 15 13 12 12 13
33 35 37 39 42 45 47 49 49 50 49 49 48 49 50 48 42 38 37 37 39 41 45 47 49 51 49 45 39 37 35 33 30 27 26 25 23 21 18 15 12 11 10 10
35 37 39 41 44 46 48 49 49 50 49 47 47 48 48 49 45 39 36 34 35 36 39 43 44 46 47 46 41 35 32 30 27 24 22 21 19 18 17 15 13 13 12 12
38 39 41 43 45 47 48 49 49 49 48 47 46 46 47 47 46 40 35 33 32 33 35 37 39 40 41 42 41 36 31 29 27 25 22 20 19 18 18 17 17 17 18 19
39 40 41 43 45 47 48 49 48 47 47 46 45 44 45 46 46 42 35 31 29 28 29 31 32 34 35 36 37 37 32 29 27 26 24 21 19 19 20 21 21 21 23 25
40 40 40 42 45 47 49 49 48 46 46 45 44 43 43 44 45 43 37 30 26 25 25 26 27 28 30 30 31 32 31 29 28 26 25 24 23 24 25 27 27 27 27 27
40 39 39 41 44 47 49 49 47 45 45 45 43 41 41 41 42 42 37 30 24 22 22 22 23 24 25 25 25 26 27 26 26 25 25 24 25 26 27 27 27 26 26 26
42 39 38 41 45 48 50 49 46 44 44 44 44 41 39 39 40 41 39 31 24 20 19 19 21 21 21 20 20 21 21 22 22 22 22 23 24 24 25 25 25 25 25 26
40 39 42 46 49 50 49 46 44 42 42 42 42 41 38 37 37 38 38 32 24 20 17 17 18 18 18 16 14 15 17 18 18 19 19 19 19 20 22 24 25 26 25 25
40 44 47 49 51 49 45 42 40 39 39 40 40 38 37 36 35 36 36 33 26 20 16 15 15 15 15 13 9 10 12 14 14 15 16 17 17 18 18 19 21 21 21 21
42 41 42 44 47 45 41 39 37 37 37 38 38 36 34 34 33 33 34 33 28 21 16 13 12 12 12 10 6 6 8 9 11 13 14 14 15 15 16 16 17 17 18 19
Wind_Direction
342 344 348 342 336 332 329 326 323 325 325 327 329 328 326 323 320 319 318 315 312 311 310 308 307 305 303 301 299 298 295 293 291 290 286 280 277 276 273 268 261 255 251 249
348 344 347 341 335 332 328 328 329 330 332 332 331 329 326 323 322 321 319 318 318 318 315 311 308 305 303 301 299 295 291 286 280 275 274 275 277 278 277 275 271 265 261 257
350 346 343 342 338 335 333 336 337 337 335 333 332 332 330 328 327 325 323 323 321 317 314 311 308 305 302 299 296 291 286 281 275 270 269 271 273 275 276 275 272 268 266 264
349 346 349 342 339 338 337 338 338 337 336 335 335 335 333 328 326 325 325 324 323 321 318 314 311 307 302 298 294 289 283 277 273 270 269 269 269 270 270 271 268 263 260 261
344 343 340 340 343 341 339 339 338 338 338 336 333 334 333 329 328 328 328 327 326 325 322 319 315 310 306 302 298 291 284 277 271 267 265 265 265 265 265 265 265 260 254 252
335 336 338 340 341 341 339 339 338 337 336 335 335 336 336 332 330 329 329 328 328 328 326 324 320 315 312 309 305 300 292 284 276 267 262 260 259 259 259 260 260 257 251 246
333 337 339 340 341 339 338 339 338 337 338 338 337 336 335 333 330 329 330 331 332 333 332 330 326 322 318 315 313 307 300 291 281 273 263 258 256 255 255 255 255 253 248 242
335 338 339 339 339 339 340 340 339 339 337 336 337 337 336 333 331 332 333 336 338 338 338 336 333 328 324 321 318 314 306 297 288 278 266 259 256 254 253 252 250 248 244 239
332 333 336 340 342 342 341 341 339 337 335 337 339 340 338 335 335 336 337 340 343 344 343 341 340 336 332 330 327 321 313 304 294 282 271 264 259 255 251 248 245 242 240 237
326 333 340 342 342 339 338 337 336 336 337 339 342 342 339 336 338 340 341 343 347 347 347 347 346 345 343 341 339 334 324 311 297 286 277 269 261 254 248 244 241 238 235 233
332 338 340 340 339 338 337 337 337 337 340 342 343 343 340 339 341 342 343 346 349 350 351 352 352 352 352 352 351 346 336 321 308 293 279 269 260 251 244 239 235 230 227 224
336 337 338 339 340 341 340 339 339 340 342 344 344 345 343 340 342 343 345 349 352 354 355 355 356 357 358 358 357 355 349 337 322 306 286 270 257 246 237 232 227 220 214 211
333 335 337 339 341 342 341 341 341 341 343 345 346 347 345 342 343 344 347 352 355 357 359 359 0 1 2 3 3 1 1 357 349 340 325 292 246 221 216 211 205 200 199 201
332 334 337 339 340 341 341 342 342 343 344 346 347 348 347 344 344 346 350 355 358 360 2 3 5 6 8 9 9 10 12 15 19 27 36 57 109 150 160 164 171 177 180 185
330 333 335 337 339 340 341 342 343 344 344 346 349 351 350 346 345 347 352 358 1 3 4 6 8 10 12 15 17 20 23 29 36 45 55 70 89 111 126 141 154 162 165 169
328 331 334 336 338 339 340 342 343 344 345 347 351 352 352 348 347 348 352 358 3 6 7 9 11 13 16 19 24 28 32 38 45 54 62 72 84 97 108 122 136 147 157 162
326 329 331 333 336 337 339 341 343 344 346 347 350 352 353 351 348 347 351 358 4 8 9 11 13 16 17 20 25 30 35 42 51 59 65 73 82 92 101 112 122 133 146 161
322 324 327 330 334 336 338 340 342 344 346 346 348 351 353 353 349 347 350 357 3 8 11 13 15 17 19 21 24 29 35 42 51 61 68 73 78 85 92 98 108 120 133 149
321 323 325 329 333 335 337 339 341 342 344 345 346 348 351 354 352 348 347 352 359 6 12 15 17 18 20 21 24 27 32 37 44 54 61 65 72 77 82 88 95 103 112 126
318 321 323 326 330 333 335 337 338 340 342 343 344 346 348 352 353 350 345 347 353 359 8 15 18 19 20 22 25 29 35 38 41 46 53 59 65 72 80 88 97 103 110 117
316 317 320 323 327 330 332 334 335 337 339 340 342 343 345 348 352 352 347 344 346 353 1 11 17 20 21 24 26 31 38 44 49 52 56 62 69 79 89 97 103 107 112 118
312 312 315 319 323 326 328 330 332 334 336 337 338 339 342 345 349 351 350 344 342 347 355 4 13 19 23 26 28 33 40 49 56 61 68 77 86 94 98 100 103 107 110 114
308 307 311 316 319 322 325 327 329 330 332 333 334 336 338 341 346 350 350 346 340 341 349 357 5 12 20 27 30 34 42 49 57 64 72 82 91 96 96 94 96 101 107 111
304 303 309 314 316 318 321 323 325 326 328 329 331 334 336 338 342 346 349 346 340 337 342 350 356 2 9 21 31 35 42 50 58 66 75 83 89 92 91 90 91 97 103 109
299 302 310 313 313 315 316 318 320 322 324 326 328 331 333 335 338 343 346 346 340 333 335 342 348 354 359 11 29 38 42 50 62 70 75 81 87 90 90 89 89 92 99 105
296 302 308 310 310 311 312 313 315 317 320 323 325 327 329 331 335 339 343 345 340 332 329 334 341 348 354 2 21 42 47 50 62 76 79 82 86 90 92 93 93 95 98 104
293 295 301 306 306 307 308 309 312 314 318 321 322 323 325 328 331 335 339 343 341 333 325 324 330 337 344 352 5 34 50 58 69 78 83 87 90 93 95 97 99 102 106 111
Height
5851 5849 5847 5844 5840 5836 5832 5827 5822 5816 5810 5803 5796 5788 5779 5769 5758 5748 5738 5727 5715 5703 5693 5683 5673 5665 5657 5650 5643 5636 5631 5626 5621 5617 5615 5614 5613 5613 5613 5612 5613 5615 5619 5623
5851 5848 5845 5842 5837 5832 5826 5821 5816 5811 5804 5797 5789 5781 5771 5760 5749 5737 5725 5713 5701 5690 5680 5671 5662 5653 5645 5637 5629 5622 5617 5613 5609 5606 5604 5602 5601 5601 5600 5600 5599 5600 5601 5604
5849 5845 5843 5838 5832 5825 5819 5814 5808 5802 5795 5786 5778 5769 5757 5745 5733 5722 5711 5701 5691 5680 5670 5660 5650 5640 5630 5621 5613 5607 5601 5597 5593 5591 5589 5587 5586 5586 5586 5587 5587 5587 5588 5589
5845 5842 5837 5836 5827 5819 5812 5806 5800 5793 5786 5776 5766 5757 5747 5733 5721 5710 5700 5690 5679 5668 5657 5646 5635 5623 5612 5603 5594 5587 5581 5577 5574 5572 5571 5570 5570 5570 5570 5571 5572 5574 5575 5577
5840 5837 5834 5828 5821 5814 5807 5800 5793 5786 5777 5768 5759 5750 5740 5724 5711 5699 5688 5678 5666 5654 5642 5629 5616 5603 5591 5581 5571 5563 5557 5553 5551 5550 5550 5550 5551 5552 5553 5555 5556 5559 5562 5564
5838 5834 5828 5824 5816 5808 5802 5794 5787 5779 5770 5760 5748 5737 5728 5714 5702 5691 5680 5668 5656 5643 5629 5614 5599 5584 5570 5559 5548 5540 5534 5530 5527 5526 5527 5528 5530 5533 5535 5538 5540 5543 5547 5550
5835 5829 5824 5817 5809 5803 5797 5790 5781 5770 5759 5748 5738 5727 5716 5704 5693 5683 5671 5659 5645 5631 5616 5600 5582 5566 5552 5540 5529 5520 5512 5507 5505 5504 5504 5506 5509 5513 5516 5520 5524 5528 5532 5537
5830 5824 5821 5812 5805 5797 5790 5781 5771 5761 5752 5742 5732 5720 5707 5694 5684 5674 5663 5650 5637 5622 5605 5587 5568 5552 5538 5526 5514 5503 5494 5489 5486 5485 5486 5488 5491 5494 5498 5502 5507 5512 5517 5524
5826 5822 5815 5806 5797 5788 5781 5773 5765 5757 5748 5737 5725 5713 5700 5688 5678 5667 5655 5642 5628 5612 5595 5577 5558 5541 5527 5514 5501 5490 5481 5475 5472 5471 5472 5474 5476 5479 5482 5487 5492 5498 5504 5512
5823 5816 5808 5800 5793 5786 5778 5771 5763 5753 5742 5730 5718 5706 5693 5681 5671 5660 5649 5635 5621 5605 5588 5570 5552 5534 5519 5505 5492 5480 5472 5466 5463 5462 5462 5463 5464 5467 5470 5475 5480 5487 5494 5501
5818 5812 5806 5800 5792 5784 5776 5767 5758 5748 5736 5724 5712 5699 5686 5675 5665 5655 5643 5629 5614 5598 5581 5564 5546 5530 5514 5500 5486 5475 5465 5460 5456 5454 5454 5454 5456 5458 5461 5466 5471 5477 5484 5491
5813 5807 5802 5796 5788 5779 5770 5762 5752 5741 5730 5719 5706 5694 5681 5669 5660 5650 5638 5625 5610 5594 5578 5561 5544 5528 5513 5498 5484 5472 5461 5455 5451 5448 5448 5448 5450 5452 5455 5460 5464 5470 5477 5484
5808 5803 5796 5789 5782 5773 5765 5756 5746 5735 5725 5714 5702 5689 5676 5665 5656 5646 5635 5622 5608 5593 5577 5561 5544 5529 5514 5500 5486 5472 5461 5453 5448 5446 5446 5446 5447 5450 5453 5457 5461 5466 5473 5479
5803 5798 5792 5785 5778 5770 5762 5753 5743 5732 5721 5710 5699 5686 5673 5663 5653 5644 5634 5621 5607 5593 5578 5562 5547 5532 5518 5505 5491 5477 5465 5456 5451 5449 5448 5448 5449 5451 5454 5458 5462 5467 5473 5479
5798 5793 5787 5780 5773 5766 5757 5749 5739 5729 5718 5708 5696 5684 5671 5661 5652 5642 5632 5622 5608 5594 5580 5566 5551 5537 5524 5512 5499 5486 5474 5464 5459 5456 5455 5454 5455 5456 5459 5463 5466 5471 5476 5481
5793 5787 5781 5775 5768 5761 5753 5744 5735 5725 5714 5703 5693 5682 5670 5659 5650 5641 5632 5623 5611 5598 5585 5571 5557 5544 5532 5521 5510 5498 5487 5478 5471 5467 5465 5464 5464 5465 5467 5470 5473 5477 5481 5486
5787 5782 5776 5770 5763 5756 5748 5739 5730 5720 5709 5699 5690 5679 5669 5658 5649 5641 5633 5623 5612 5601 5589 5576 5564 5552 5540 5530 5520 5511 5502 5493 5486 5481 5477 5475 5474 5475 5477 5479 5481 5483 5486 5489
5781 5776 5771 5765 5758 5751 5743 5734 5725 5716 5706 5696 5686 5677 5667 5657 5648 5640 5633 5625 5615 5605 5594 5582 5571 5560 5549 5539 5530 5522 5514 5507 5501 5496 5493 5490 5488 5487 5487 5487 5488 5489 5490 5492
5775 5770 5764 5758 5751 5745 5737 5729 5720 5712 5703 5693 5684 5675 5666 5656 5646 5638 5631 5625 5617 5609 5599 5589 5578 5568 5558 5548 5540 5532 5525 5519 5513 5509 5505 5502 5500 5498 5497 5495 5494 5494 5494 5496
5768 5763 5757 5751 5745 5739 5732 5725 5717 5708 5700 5691 5683 5674 5665 5655 5646 5637 5630 5624 5617 5610 5602 5594 5585 5576 5567 5557 5549 5542 5535 5529 5523 5519 5515 5512 5510 5507 5505 5504 5502 5502 5502 5504
5759 5755 5750 5744 5739 5733 5727 5720 5713 5705 5697 5688 5680 5672 5664 5654 5645 5636 5629 5624 5618 5612 5605 5598 5591 5583 5574 5566 5559 5552 5545 5539 5534 5529 5525 5522 5519 5517 5515 5514 5513 5512 5513 5514
5751 5746 5742 5737 5732 5727 5721 5715 5708 5700 5693 5686 5678 5670 5662 5653 5644 5635 5627 5622 5617 5612 5607 5601 5595 5588 5581 5574 5568 5562 5557 5551 5545 5540 5535 5532 5529 5528 5526 5525 5524 5524 5525 5526
5742 5738 5734 5730 5725 5720 5714 5708 5702 5695 5689 5682 5675 5667 5658 5651 5643 5635 5626 5620 5615 5611 5607 5603 5598 5592 5586 5580 5575 5570 5566 5561 5556 5551 5547 5543 5540 5539 5538 5537 5537 5536 5536 5537
5732 5729 5726 5722 5717 5713 5707 5701 5695 5689 5683 5676 5669 5662 5655 5648 5640 5632 5624 5617 5613 5609 5605 5602 5599 5594 5590 5585 5581 5576 5573 5569 5566 5562 5558 5555 5552 5550 5549 5548 5547 5547 5546 5547
5722 5719 5716 5712 5708 5703 5699 5693 5688 5682 5676 5670 5663 5657 5651 5644 5638 5631 5623 5615 5610 5606 5603 5601 5598 5595 5591 5588 5585 5581 5577 5575 5572 5570 5567 5564 5562 5560 5558 5557 5556 5556 5556 5557
5713 5709 5706 5702 5698 5693 5689 5684 5680 5675 5670 5664 5658 5652 5646 5640 5634 5628 5621 5614 5607 5604 5601 5598 5596 5594 5592 5589 5587 5584 5581 5579 5576 5575 5574 5572 5570 5568 5567 5566 5565 5565 5565 5566
5703 5700 5696 5693 5687 5684 5680 5676 5672 5667 5663 5658 5652 5646 5641 5636 5630 5625 5619 5612 5605 5601 5598 5596 5594 5593 5591 5590 5588 5586 5584 5582 5580 5578 5577 5576 5575 5575 5574 5573 5573 5572 5572 5573